N1JFY Weather Reports


time (UTC)temp
F
wind
direction
speed
knots
gust
knots
rain 1hr
in
rain 24hr
in
rain mn
in
humidity
%
barometer
mb
20240614131600 66 262 2.6 10.4 0.00 0.00 0.00 81 1005.9
20240614130046 65 230 4.3 11.3 0.00 0.00 0.00 81 1005.7
20240614124542 65 215 3.5 10.4 0.00 0.00 0.00 83 1005.4
20240614123040 64 207 1.7 12.2 0.00 0.00 0.00 84 1005.3
20240614121540 63 211 3.5 9.6 0.00 0.00 0.00 84 1005.4
20240614120041 63 167 1.7 8.7 0.00 0.00 0.00 85 1005.6
20240614114559 62 241 4.3 11.3 0.00 0.00 0.00 84 1005.8
20240614113136 62 243 3.5 13.9 0.00 0.00 0.00 84 1005.9
20240614111548 62 194 1.7 10.4 0.00 0.00 0.00 85 1005.5
20240614110033 62 201 2.6 11.3 0.00 0.00 0.00 85 1005.7
20240614104532 61 213 1.7 9.6 0.00 0.00 0.00 85 1005.7
20240614103031 61 227 1.7 10.4 0.00 0.00 0.00 84 1005.9
20240614101531 61 209 0.9 11.3 0.00 0.00 0.00 84 1005.9
20240614100030 61 165 2.6 10.4 0.00 0.00 0.00 83 1005.8
20240614094529 60 198 1.7 10.4 0.00 0.00 0.00 83 1005.8
20240614093028 60 208 4.3 11.3 0.00 0.00 0.00 83 1005.6
20240614091553 60 153 3.5 12.2 0.00 0.00 0.00 82 1005.3
20240614090024 60 157 2.6 11.3 0.00 0.00 0.00 82 1005.6
20240614084523 60 211 1.7 8.7 0.00 0.00 0.00 82 1005.5
20240614083021 60 213 1.7 10.4 0.00 0.00 0.00 82 1005.7
20240614081525 60 198 1.7 7.8 0.00 0.00 0.00 81 1005.7
20240614080019 60 177 1.7 8.7 0.00 0.00 0.00 80 1005.9
20240614074521 60 182 1.7 8.7 0.00 0.00 0.00 80 1006.1
20240614073018 60 204 2.6 7.8 0.00 0.00 0.00 80 1006.3
20240614071517 60 153 0.9 7.8 0.00 0.00 0.00 80 1006.5
20240614070009 60 207 3.5 9.6 0.00 0.00 0.00 79 1006.7
20240614064508 61 196 1.7 9.6 0.00 0.00 0.00 79 1006.9
20240614063004 61 182 1.7 7.8 0.00 0.00 0.00 78 1007.1
20240614061507 61 204 1.7 10.4 0.00 0.00 0.00 78 1007.4
20240614060001 62 213 2.6 9.6 0.00 0.00 0.00 77 1007.6
20240614054604 62 176 3.5 9.6 0.00 0.00 0.00 76 1007.4
20240614053102 61 192 2.6 8.7 0.00 0.00 0.00 78 1007.5
20240614051554 61 181 1.7 9.6 0.00 0.00 0.00 78 1007.8
20240614050111 62 196 1.7 8.7 0.00 0.00 0.00 79 1008.1
20240614044550 62 215 2.6 13.0 0.00 0.00 0.00 78 1007.9
20240614043049 62 228 2.6 7.0 0.00 0.00 0.00 77 1007.8
20240614041549 62 189 0.9 9.6 0.00 0.00 0.00 78 1008.0
20240614040101 62 164 0.9 7.0 0.00 0.00 0.00 78 1008.0
20240614034544 63 199 0.9 8.7 0.00 0.00 0.00 77 1008.0
20240614033043 64 225 0.9 8.7 0.00 0.00 0.00 76 1008.3
20240614031543 64 219 3.5 7.0 0.00 0.00 0.00 75 1008.4
20240614030043 65 174 2.6 7.8 0.00 0.00 0.00 75 1008.5
20240614024537 65 187 3.5 8.7 0.00 0.00 0.00 75 1008.7
20240614023048 65 189 1.7 6.1 0.00 0.00 0.00 76 1009.0
20240614021539 66 217 1.7 8.7 0.00 0.00 0.00 75 1008.9
20240614020037 66 180 1.7 9.6 0.00 0.00 0.00 75 1009.1
20240614014539 66 182 0.9 7.0 0.00 0.00 0.00 74 1009.0
20240614013036 66 174 0.9 6.1 0.00 0.00 0.00 72 1009.0
20240614011533 67 186 0.9 7.8 0.00 0.00 0.00 71 1009.3
20240614010032 67 196 0.9 4.3 0.00 0.00 0.00 70 1009.5
20240614004531 67 196 0.0 4.3 0.00 0.01 0.00 68 1009.4
20240614003038 68 193 0.0 4.3 0.00 0.01 0.00 67 1009.3
20240614001537 68 234 0.9 6.1 0.00 0.01 0.00 66 1009.3
20240614000029 68 209 0.9 5.2 0.00 0.01 0.00 66 1009.3
20240613234530 69 157 0.0 0.0 0.00 0.01 0.00 65 1009.4
20240613233029 71 157 0.0 4.3 0.00 0.01 0.00 60 1009.3
20240613231529 71 211 0.0 3.5 0.00 0.01 0.00 58 1009.1
20240613230039 71 229 0.0 5.2 0.00 0.01 0.00 57 1009.2
20240613224539 72 180 1.7 7.0 0.00 0.01 0.00 57 1009.2
20240613223028 72 229 0.0 7.0 0.00 0.01 0.00 56 1009.3
20240613221526 73 195 2.6 10.4 0.00 0.01 0.00 53 1009.2
20240613220032 73 221 2.6 10.4 0.00 0.01 0.00 55 1009.4
20240613214523 73 224 0.9 9.6 0.00 0.01 0.00 55 1009.4
20240613213022 73 255 0.9 9.6 0.00 0.01 0.00 57 1009.5
20240613211521 72 221 1.7 6.1 0.00 0.01 0.00 57 1009.5
20240613210023 72 190 0.9 6.1 0.00 0.01 0.00 56 1009.6
20240613204521 74 221 0.9 11.3 0.00 0.01 0.00 53 1009.5
20240613203020 74 296 3.5 13.9 0.00 0.01 0.00 51 1009.5
20240613201518 74 232 1.7 10.4 0.00 0.01 0.00 51 1009.6
20240613200017 74 210 0.9 9.6 0.00 0.01 0.00 51 1009.7
20240613194514 74 244 1.7 9.6 0.00 0.01 0.00 50 1009.9
20240613193011 74 225 3.5 10.4 0.00 0.01 0.00 56 1010.3
20240613191509 72 240 3.5 12.2 0.00 0.01 0.00 55 1010.5
20240613190011 72 205 2.6 9.6 0.00 0.01 0.00 54 1010.5
20240613184519 72 234 0.9 13.9 0.00 0.01 0.00 54 1010.6
20240613183006 73 271 3.5 13.0 0.00 0.01 0.00 53 1010.6
20240613181505 72 207 1.7 10.4 0.00 0.01 0.00 54 1010.7
20240613180006 73 224 0.0 9.6 0.00 0.01 0.00 56 1010.8
20240613174501 72 247 3.5 13.9 0.00 0.01 0.00 56 1010.9
20240613173001 72 283 3.5 11.3 0.00 0.01 0.00 55 1010.9
20240613171558 72 227 2.6 12.2 0.00 0.01 0.00 55 1011.2
20240613170058 72 253 2.6 15.6 0.00 0.01 0.00 55 1011.3
20240613164553 71 217 5.2 14.8 0.00 0.01 0.00 57 1011.5
20240613163055 71 215 2.6 10.4 0.00 0.01 0.00 58 1011.7
20240613161550 70 246 1.7 7.8 0.00 0.01 0.00 58 1011.8
20240613160049 70 215 1.7 7.0 0.00 0.01 0.00 62 1011.7
20240613154618 70 207 1.7 11.3 0.00 0.01 0.00 63 1012.0
20240613153047 69 360 0.9 10.4 0.00 0.01 0.00 59 1012.0
20240613151608 69 229 2.6 11.3 0.00 0.01 0.00 57 1012.0
20240613150110 68 200 0.9 9.6 0.00 0.01 0.00 62 1012.0
20240613144559 68 251 1.7 8.7 0.00 0.01 0.00 61 1012.2
20240613143044 68 253 0.9 9.6 0.00 0.01 0.00 62 1012.2
20240613141539 67 178 3.5 9.6 0.00 0.01 0.00 66 1012.3
20240613140041 67 296 6.1 10.4 0.00 0.01 0.00 67 1012.2
20240613134543 66 244 1.7 6.1 0.00 0.01 0.00 68 1012.3
20240613133032 66 207 1.7 9.6 0.00 0.01 0.00 69 1012.5